Weather observations for the past three days for
College Park Airport
Metric (Imperial)
Date Time (edt) Wind (kph) Vis. (km) Weather Sky Cond. Temperature (ºC) Relative Humidity Wind Chill (°C) Heat Index (°C) Pressure Precipitation (cm)
Air Dwpt 6 hour altimeter (cm) sea level (mb) 1 hr 3 hr 6 hr
Max. Min.
05 03:35 Calm 16.09 Fair CLR 23.4 20.8 85% 75.84 0.0
05 03:15 Calm 16.09 Fair CLR 23.9 20.8 83% 24 75.84 0.0
05 02:55 NW 7 16.09 Fair CLR 24.7 20.6 78% 25 75.87 0.0
05 02:35 NW 9 16.09 Fair CLR 25 20.7 77% 26 75.87 0.0
05 02:15 W 9 16.09 Fair CLR 25.1 20.8 77% 26 75.9 0.0
05 01:55 W 9 16.09 Fair CLR 25 21 27.4 24.4 79% 26 75.9 0.0
05 01:35 W 11 16.09 Fair CLR 25 21.1 79% 26 75.92 0.0
05 01:15 W 9 16.09 Fair CLR 25 21.3 80% 26 75.92 0.0
05 00:55 NW 6 16.09 Fair CLR 25.1 21.5 81% 26 75.95 0.0
05 00:35 W 6 16.09 Fair CLR 24.9 21.7 82% 26 75.95 0.0
05 00:15 Calm 16.09 Fair CLR 25 21.8 82% 26 75.95 0.0
04 23:55 SW 9 16.09 Fair CLR 25 22 83% 26 75.95 0.0
04 23:35 Calm 16.09 Fair CLR 24.8 22.4 87% 25 75.97 0.0
04 23:15 Calm 16.09 Fair CLR 25.2 22.3 84% 26 75.97 0.0
04 22:55 Calm 16.09 Fair CLR 25.8 22.2 81% 27 75.97 0.0
04 22:35 Calm 16.09 Fair CLR 24.8 22.8 89% 25 75.97 0.0
04 22:15 Calm 16.09 Fair CLR 26 22.3 80% 28 75.95 0.0
04 21:55 Calm 16.09 Fair CLR 26.1 22.4 80% 28 75.95 0.0
04 21:35 S 6 16.09 Fair CLR 26.1 22.7 82% 28 75.95 0.0
04 21:15 S 6 16.09 Fair CLR 26.5 23 81% 29 75.92 0.0
04 20:55 Calm 16.09 Fair CLR 26.9 22.7 78% 29 75.9 0.0
04 20:35 Calm 11.27 Fair with Haze CLR 27 23.1 79% 30 75.9 0.0
04 20:15 S 6 16.09 Fair CLR 27.2 23.1 78% 30 75.9 0.0
04 19:55 SW 7 16.09 Fair CLR 27.3 23.8 33.3 25.5 81% 31 75.87 0.0
04 19:35 SW 6 16.09 Fair CLR 27.5 23.9 81% 31 75.9 0.0
04 19:15 Calm 16.09 Fair CLR 27.6 24 81% 31 75.9 0.0
04 18:55 SE 7 16.09 Fair CLR 27 24.9 88% 31 75.9 0.0
04 18:35 Calm 16.09 Fair CLR 26.5 25.3 93% 30 75.9 0.0
04 18:15 Calm 16.09 Fair CLR 26.7 25.2 92% 30 75.9 0.0
04 17:55 SE 6 16.09 Fair CLR 26 24.8 93% 28 75.92 0.0
04 17:35 Calm 16.09 Partly Cloudy SCT120 25.5 24.2 93% 27 75.92 0.0
04 17:15 Calm 16.09 Light Rain SCT120 26.7 24.1 86% 30 75.95 0.0
04 16:55 NW 7 16.09 Light Rain SCT120 29.8 21.4 61% 33 75.95 0.0
04 16:35 NW 9 16.09 Fair CLR 30.7 20.8 56% 33 75.97 0.0
04 16:15 N 11 16.09 Partly Cloudy SCT050 31.1 20.8 54% 34 75.97 0.0
04 15:55 N 9 16.09 Fair CLR 31.3 20.1 51% 33 75.95 0.0
04 15:35 NW 17 16.09 Fair CLR 32.4 20.5 49% 35 75.97 0.0
04 15:15 N 19 16.09 Fair CLR 32 19.9 49% 34 75.95 0.0
04 14:55 NW 13 16.09 Fair CLR 32.7 19.6 46% 35 75.97 0.0
04 14:35 W 13 16.09 Fair CLR 32.3 20.3 49% 35 76 0.0
04 14:15 N 13 16.09 Fair CLR 32.4 20.4 49% 35 76.02 0.0
04 13:55 NW 15 16.09 Fair CLR 31.9 20.1 32.2 23.7 50% 34 76.02 0.0
04 13:35 N 11 16.09 Fair CLR 31.7 20.1 50% 34 76.02 0.0
04 13:15 NW 13 16.09 Fair CLR 31.5 20.3 51% 34 76.05 0.0
04 12:55 W 9 16.09 Fair CLR 30.9 20.2 53% 33 76.05 0.0
04 12:35 W 17 11.27 Fair CLR 30.3 20.6 56% 33 76.07 0.0
04 12:15 W 9 16.09 Fair CLR 30.1 20.9 58% 33 76.1 0.0
04 11:55 NW 11 11.27 Fair CLR 29.5 20.8 60% 32 76.07 0.0
04 11:35 NW 13 16.09 Fair CLR 29.3 20.8 60% 32 76.1 0.0
04 11:15 NW 15 16.09 Fair CLR 29 20.9 62% 31 76.1 0.0
04 10:55 NW 13 16.09 Fair CLR 28.4 20.8 63% 31 76.12 0.0
04 10:35 N 11 16.09 Partly Cloudy SCT029 28.2 20.5 63% 30 76.12 0.0
04 10:15 NW 9 16.09 Fair CLR 27.9 20.8 65% 30 76.12 0.0
04 09:55 W 6 16.09 Fair CLR 27.2 21.2 70% 29 76.12 0.0
04 09:35 W 13 16.09 Fair CLR 26.9 21.5 72% 29 76.12 0.0
04 09:15 W 7 16.09 Fair CLR 26.3 21.6 75% 28 76.12 0.0
04 08:55 W 7 16.09 Fair CLR 25.5 21.7 80% 27 76.12 0.0
04 08:35 W 9 16.09 Fair CLR 24.7 21.5 82% 25 76.12 0.0
04 08:15 Calm 16.09 Fair CLR 24.1 21.5 85% 24 76.12 0.0
04 07:55 W 6 16.09 Partly Cloudy SCT002 SCT120 23.6 21.2 23.7 22 86% 76.12 0.0
04 07:35 Calm 16.09 Mostly Cloudy SCT002 SCT100 BKN120 23.2 21.4 90% 76.12 0.0
04 07:15 SW 6 16.09 Partly Cloudy SCT060 SCT100 22.7 21.4 92% 76.1 0.0
04 06:55 Calm 16.09 Mostly Cloudy SCT050 BKN060 22.5 21.4 94% 76.1 0.0
04 06:35 Calm 16.09 Mostly Cloudy BKN070 22.6 21.3 92% 76.1 0.0
04 06:15 Calm 16.09 Mostly Cloudy BKN070 22.3 21.5 95% 76.07 0.0
04 05:55 N 7 16.09 Partly Cloudy SCT070 22.2 21.7 97% 76.1 0.0
04 05:35 Calm 16.09 Fair CLR 22.2 21.6 96% 76.02 0.0
04 04:55 Calm 16.09 Fair CLR 22.1 21.5 96% 76.02 0.0
04 04:35 Calm 16.09 Fair CLR 22.1 21.5 96% 76.02 0.0
04 04:15 Calm 16.09 Fair CLR 22.4 21.5 95% 76.02 0.0
04 03:55 Calm 16.09 Partly Cloudy SCT120 22.5 21.7 95% 76.05 0.0
04 03:35 Calm 16.09 Mostly Cloudy SCT005 BKN120 22.4 21.6 95% 76.07 0.0
04 03:15 S 6 16.09 Partly Cloudy SCT120 22.5 21.7 95% 76.07 0.0
04 02:55 Calm 16.09 Partly Cloudy SCT120 22.3 21.6 96% 76.02 0.0
04 02:35 S 6 16.09 Fair CLR 22.5 21.7 95% 76.02 0.0
04 02:15 SE 9 16.09 Fair CLR 22.4 21.4 94% 76.02 0.0
04 01:55 W 7 16.09 Fair CLR 22.5 21.6 30.8 22.2 95% 76.02 0.0 0.03 0.71
04 01:35 W 9 16.09 Fair CLR 22.3 21.5 95% 76.02 0.0 0.03
04 01:15 Calm 16.09 Light Rain CLR 22.3 21.4 95% 76 0.0 0.03
04 00:55 SE 7 16.09 Partly Cloudy SCT110 22.6 21.5 94% 76.1 0.0 0.69
04 00:35 Calm 16.09 Light Rain SCT034 SCT047 BKN110 23.2 21.5 90% 76.15 0.0 0.69
04 00:15 NW 13 4.83 Heavy Rain Fog/Mist SCT034 BKN043 OVC070 23.2 21.4 90% 76.25 0.0 0.61
03 23:55 W 22 G 31 16.09 Mostly Cloudy SCT036 SCT045 BKN075 28.7 23 71% 32 76.2 0.0
03 23:35 NW 15 16.09 Mostly Cloudy SCT032 BKN075 BKN100 29 24 74% 34 76.07 0.0
03 23:15 Calm 16.09 Partly Cloudy SCT100 26.7 24.5 88% 30 76 0.0
03 22:55 Calm 16.09 Fair CLR 27.2 24.5 85% 31 76.02 0.0
03 22:35 Calm 16.09 Fair CLR 29.3 24.1 74% 34 76.05 0.0
03 22:15 S 6 16.09 Fair CLR 29.4 24.2 74% 34 76.05 0.0
03 21:55 Calm 16.09 Fair CLR 29.7 24.2 72% 35 76.05 0.0
03 21:35 S 6 16.09 Fair CLR 29.8 24.3 72% 35 76.05 0.0
03 21:15 S 6 16.09 Fair CLR 30.4 24 69% 36 76.05 0.0
03 20:55 S 7 16.09 Fair CLR 30.7 23.9 67% 36 76.05 0.0
03 20:35 SW 6 16.09 Fair CLR 30.4 24.1 69% 36 76.1 0.0
03 20:15 S 6 16.09 Fair CLR 30.6 24.2 69% 36 76.1 0.0
03 19:55 S 6 16.09 Fair CLR 30.8 24.2 34 30.7 68% 36 76.07 0.0
03 19:35 S 6 16.09 Fair CLR 31.2 24.1 66% 37 76.05 0.0
03 19:15 S 7 16.09 Fair CLR 31.6 24 64% 37 76.02 0.0
03 18:55 S 7 16.09 Fair CLR 32.6 22 54% 37 76.02 0.0
03 18:35 S 9 16.09 Fair CLR 33.3 22.6 53% 38 76 0.0
03 18:15 S 9 16.09 Fair CLR 33.4 22.9 54% 38 76 0.0
03 17:55 SW 9 16.09 Fair CLR 33.6 22.6 53% 38 76 0.0
03 17:35 SW 9 16.09 Fair CLR 33.6 22.4 52% 38 76 0.0
03 17:15 S 7 16.09 Fair CLR 33.4 22.2 52% 38 76.02 0.0
03 16:55 SW 7 16.09 Fair CLR 33.3 21.8 51% 37 76.02 0.0
03 16:35 SW 9 16.09 Fair CLR 33.3 21.4 50% 37 76.02 0.0
03 16:15 W 11 16.09 Fair CLR 33.2 21.4 50% 37 76.05 0.0
03 15:55 SW 11 8.05 Fair with Haze CLR 32.7 22 53% 37 76.07 0.0
03 15:15 SW 11 16.09 Fair CLR 31.3 21.6 56% 35 76.12 0.0
03 14:55 W 11 16.09 Fair CLR 31 21.3 56% 34 76.15 0.0
03 14:35 W 9 11.27 Fair CLR 31.6 21.4 55% 35 76.15 0.0
03 14:15 SW 13 16.09 Fair CLR 30.9 20.9 55% 34 76.15 0.0
03 13:55 SW 9 11.27 Fair CLR 31.2 20.9 31.3 23.8 54% 34 76.15 0.0
03 13:35 W 9 16.09 Fair CLR 30.5 21.2 58% 33 76.23 0.0
03 13:15 W 11 16.09 Fair CLR 29.7 22.3 65% 33 76.23 0.0
03 12:55 SW 7 16.09 Fair CLR 28.6 21.8 67% 31 76.28 0.0
03 12:35 W 6 16.09 Fair CLR 27.8 21.9 70% 30 76.28 0.0
03 12:15 W 11 16.09 Partly Cloudy SCT019 SCT027 SCT070 27.2 22.3 75% 30 76.35 0.0
03 11:55 NW 11 16.09 Mostly Cloudy BKN017 BKN027 26.9 22.8 78% 29 76.38 0.0
03 11:35 W 13 16.09 Overcast OVC017 27.1 23 78% 30 76.4 0.0
03 11:15 SW 11 16.09 Overcast OVC015 27.4 23.2 78% 30 76.33 0.0
03 10:55 S 9 16.09 Mostly Cloudy BKN015 27 23.2 80% 30 76.3 0.0
03 10:35 S 7 16.09 Partly Cloudy SCT013 26.9 23.2 80% 30 76.3 0.0
03 10:15 S 11 16.09 Fair CLR 26.2 22.9 82% 28 76.28 0.0
03 09:55 S 7 16.09 Fair CLR 25.6 22.7 84% 27 76.28 0.0
03 09:35 S 9 16.09 Fair CLR 25.4 22.6 85% 27 76.28 0.0
03 09:15 S 6 16.09 Partly Cloudy SCT014 25.6 22.6 84% 27 76.33 0.0
03 08:55 SE 6 16.09 Mostly Cloudy BKN014 24.7 22.6 88% 25 76.35 0.0
03 08:35 E 6 16.09 Overcast OVC014 24 22.5 91% 23 76.38 0.0
03 08:15 N 6 16.09 Overcast OVC018 23.9 22.6 92% 23 76.4 0.0
03 07:50 NE 9 16.09 Overcast SCT008 OVC016 23.8 22.5 23.8 22.2 92% 76.43 0.0
03 07:35 N 11 16.09 Overcast SCT008 OVC016 23.7 22.4 92% 76.43 0.0
03 07:15 N 7 16.09 Overcast OVC016 23.2 22.2 94% 76.38 0.0
03 06:55 N 7 16.09 Overcast OVC014 23 22.1 95% 76.35 0.0
03 06:35 NE 9 16.09 Mostly Cloudy BKN014 22.8 22 95% 76.3 0.0
03 06:15 N 11 16.09 Mostly Cloudy BKN014 22.5 21.8 96% 76.3 0.0
03 05:55 Calm 16.09 Overcast OVC014 22.6 22 96% 76.28 0.0
03 05:35 Calm 16.09 Overcast OVC014 22.6 22 96% 76.28 0.0
03 05:15 Calm 16.09 Overcast OVC014 22.6 22.1 97% 76.3 0.0
03 04:55 Calm 16.09 Overcast OVC014 22.7 22.1 96% 76.28 0.0
03 04:35 NE 6 16.09 Mostly Cloudy SCT012 BKN060 BKN100 22.3 21.7 96% 76.28 0.0
03 04:15 Calm 16.09 Partly Cloudy SCT060 SCT100 22.5 21.8 96% 76.28 0.0
03 03:55 Calm 16.09 Mostly Cloudy SCT060 BKN075 BKN085 23.1 22.2 95% 76.25 0.0
03 03:35 Calm 16.09 Overcast SCT007 BKN060 OVC095 22.5 21.9 96% 76.28 0.0
03 03:15 Calm 16.09 Overcast SCT007 BKN011 OVC060 22.6 21.8 95% 76.28 0.0
03 02:55 Calm 16.09 Overcast BKN011 OVC023 22.5 21.7 95% 76.28 0.0
03 02:35 Calm 16.09 Overcast BKN011 OVC023 22.5 21.8 96% 76.28 0.0
03 02:15 Calm 16.09 Overcast BKN011 OVC070 22.6 21.7 95% 76.28 0.0
03 01:55 Calm 16.09 Overcast SCT011 OVC070 22.3 21.7 23.4 22.1 96% 76.3 0.0
03 01:35 Calm 16.09 Overcast BKN070 OVC080 22.1 21.5 96% 76.3 0.0
03 01:15 Calm 16.09 Overcast BKN070 OVC080 22.3 21.6 96% 76.3 0.0
03 00:55 Calm 16.09 Overcast BKN070 OVC080 22.5 21.6 95% 76.3 0.0
03 00:35 Calm 16.09 Overcast BKN075 OVC085 22.5 21.6 95% 76.33 0.0
03 00:15 N 6 16.09 Overcast BKN075 OVC095 22.4 21.6 95% 76.35 0.0
02 23:55 N 6 16.09 Mostly Cloudy BKN095 22.5 21.5 94% 76.35 0.0
02 23:35 Calm 16.09 Overcast OVC095 22.5 21.5 94% 76.33 0.0
02 23:15 Calm 16.09 Mostly Cloudy SCT085 BKN095 22.5 21.4 94% 76.35 0.0
02 22:55 Calm 16.09 Mostly Cloudy BKN075 BKN100 22.6 21.4 93% 76.35 0.0
02 22:35 N 7 16.09 Overcast OVC075 22.9 21.5 92% 76.38 0.0
02 22:15 NE 6 16.09 Mostly Cloudy BKN085 22.5 21.5 94% 76.35 0.0
02 21:55 E 6 16.09 Fair CLR 22.5 21.6 95% 76.33 0.0
02 21:35 E 6 16.09 Fair CLR 22.6 21.5 94% 76.3 0.0
02 21:15 Calm 16.09 Partly Cloudy SCT100 22.8 21.8 94% 76.33 0.0
02 20:55 Calm 16.09 Partly Cloudy SCT100 22.8 21.9 95% 76.35 0.0
02 20:35 Calm 16.09 Fair CLR 22.8 22 95% 76.33 0.0
02 20:15 E 6 16.09 Fair CLR 22.9 22.2 96% 76.3 0.0
02 19:55 Calm 16.09 Fair CLR 23.4 22.4 25.2 23.2 94% 76.33 0.0 0.05
02 19:35 Calm 16.09 Fair CLR 23.5 22.4 94% 76.3 0.0
02 19:15 Calm 16.09 Fair CLR 23.8 22.6 93% 76.3 0.0
02 18:55 Calm 16.09 Fair CLR 24.4 22.1 87% 25 76.33 0.0
02 18:35 E 6 16.09 Fair CLR 25 21.9 83% 26 76.33 0.0
02 18:15 NE 6 16.09 Fair CLR 24.8 21.8 83% 25 76.33 0.0
02 17:55 Calm 16.09 Fair CLR 24.7 21.8 84% 25 76.35 0.0
02 17:35 Calm 16.09 Fair CLR 24.2 22.4 90% 24 76.38 0.0
02 17:10 Calm 16.09 Fair CLR 23.7 22.8 95% 76.38 0.0
02 16:55 Calm 16.09 Fair CLR 23.7 22.4 92% 76.38 0.0 0.05
02 16:35 Calm 16.09 Fair CLR 23.5 22.2 92% 76.35 0.0
02 16:15 Calm 16.09 Fair CLR 24 22.1 89% 24 76.38 0.0
02 15:55 SW 7 16.09 Fair CLR 24 22 89% 24 76.4 0.0
02 15:35 S 6 16.09 Fair CLR 23.9 22.2 90% 23 76.35 0.0
02 15:15 Calm 16.09 Fair CLR 23.8 21.6 88% 76.33 0.0
02 14:55 Calm 16.09 Partly Cloudy SCT048 SCT070 SCT110 23.8 21.8 89% 76.35 0.0 0.03
02 14:35 Calm 16.09 Light Rain SCT050 SCT080 BKN100 23.4 21.2 88% 76.43 0.0 0.03
02 14:15 W 6 16.09 Rain SCT050 BKN095 OVC120 23.4 21.3 88% 76.48 0.0 0.03
02 13:55 N 17 G 44 8.05 Heavy Rain Fog/Mist SCT027 BKN048 OVC065 23.2 21.3 31.4 23.2 89% 76.53 0.0 0.33 0.33
02 13:35 N 30 G 48 16.09 Mostly Cloudy BKN028 BKN048 BKN090 28.8 22.4 68% 32 76.58 0.0
02 13:15 NE 9 16.09 Partly Cloudy SCT030 30.8 23 63% 35 76.45 0.0
02 12:55 E 11 16.09 Partly Cloudy SCT030 30.9 23 63% 35 76.43 0.0
02 12:35 N 9 16.09 Fair CLR 30.7 23.2 64% 35 76.4 0.0
02 12:15 Calm 16.09 Fair CLR 30.2 22.7 64% 34 76.4 0.0
02 11:55 E 6 16.09 Fair CLR 30 22.9 66% 34 76.4 0.0
02 11:35 E 9 16.09 Fair CLR 29.9 23.3 68% 34 76.4 0.0
02 11:15 E 9 16.09 Fair CLR 29.9 22.9 66% 34 76.4 0.0
02 10:55 E 13 16.09 Fair CLR 29.7 22.6 66% 33 76.4 0.0
02 10:35 NE 9 16.09 Fair CLR 28.9 22 66% 32 76.4 0.0
02 10:15 E 7 16.09 Fair CLR 28.9 22 66% 32 76.4 0.0
02 09:55 NE 7 16.09 Fair CLR 28.1 21.7 68% 31 76.4 0.0
02 09:35 NE 7 16.09 Fair CLR 27.7 21.4 69% 30 76.4 0.0
02 09:15 E 7 16.09 Fair CLR 27.6 21.7 70% 30 76.4 0.0
02 08:55 E 6 16.09 Fair CLR 26.9 21.4 72% 29 76.38 0.0
02 08:35 E 7 16.09 Fair CLR 26.2 21.4 75% 28 76.35 0.0
02 08:15 NE 6 16.09 Fair CLR 25.4 21.8 81% 27 76.35 0.0
02 07:55 Calm 16.09 Fair CLR 24.4 22 26.9 23 87% 25 76.35 0.0
02 07:35 Calm 16.09 Fair CLR 24.4 21.7 85% 25 76.35 0.0
02 07:15 Calm 16.09 Fair CLR 23.9 21.9 89% 24 76.35 0.0
02 06:55 Calm 16.09 Fair CLR 23.3 21.9 92% 76.35 0.0
02 06:35 Calm 16.09 Fair CLR 23.5 21.7 90% 76.35 0.0
02 06:15 Calm 16.09 Fair CLR 23.5 21.9 91% 76.35 0.0
02 05:55 Calm 16.09 Fair CLR 23.2 21.6 91% 76.33 0.0
02 05:35 Calm 16.09 Fair CLR 23.7 21.7 89% 76.33 0.0
02 05:15 Calm 16.09 Fair CLR 24.1 21.8 87% 24 76.33 0.0
02 04:55 Calm 16.09 Fair CLR 24.5 21.8 85% 25 76.33 0.0
02 04:35 Calm 16.09 Fair CLR 24.4 21.9 86% 25 76.33 0.0
02 04:15 Calm 16.09 Fair CLR 24.7 22.1 86% 25 76.33 0.0
02 03:55 Calm 16.09 Fair CLR 24.4 22.3 88% 24 76.3 0.0
Date Time (edt) Wind (kph) Vis. (km) Weather Sky Cond. Air Dwpt Max. Min. Relative Humidity Wind Chill (°C) Heat Index (°C) altimeter (cm) sea level (mb) 1 hr 3 hr 6 hr
6 hour
Temperature (ºC) Pressure Precipitation (cm)